Regional Weather Roundup
Issued by NWS

Home | Current Version | Previous Version | Text Only | Print | Product List | Glossary On
Versions: 1 2 3 4 5 6 7 8 9 10 11 12 13 14 15 16 17 18 19 20 21 22 23 24 25 26 27 28
000
ASUS44 KJAN 250120
RWRMS

MISSISSIPPI HOURLY WEATHER ROUNDUP
NATIONAL WEATHER SERVICE JACKSON MS
800 PM CDT SAT SEP 24 2016

NOTE: "FAIR: INDICATES FEW OR NO CLOUDS BELOW 12,000 FEET WITH NO
SIGNIFICANT WEATHER AND/OR OBSTRUCTIONS TO VISIBILITY.

MSZ001>002-007>008-010>013-018>021-025>028-034>036-250200-
NORTHWEST MISSISSIPPI

CITY           SKY/WX    TMP DP  RH WIND       PRES   REMARKS
BATESVILLE     FAIR      77  68  75 CALM      29.99S
CLARKSDALE     CLEAR     82  68  61 MISG      29.98S
CLEVELAND      MOCLDY    80  72  75 CALM      29.97S
GREENWOOD      CLOUDY    79  72  79 CALM      29.97S
GREENVILLE     PTCLDY    81  67  62 NE3       29.97S
OLIVE BRANCH   PTCLDY   N/A N/A N/A CALM      29.99S
OXFORD         FAIR      79  64  61 CALM      30.01S
TUNICA         CLEAR     79  64  61 E3        29.99R
WINONA         FAIR      78  69  72 CALM      29.99R
$$

MSZ003>006-009-014>017-022>024-029>033-037>039-250200-
NORTHEAST MISSISSIPPI

CITY           SKY/WX    TMP DP  RH WIND       PRES   REMARKS
COLUMBUS AFB   CLEAR     81  66  61 CALM      29.98S
CORINTH        FAIR      79  64  61 CALM      30.00S
GOLDN TRIANGLE CLEAR     84  63  48 CALM      29.99S
STARKVILLE     FAIR      79  68  69 CALM      30.01R
TUPELO         CLEAR     83  62  49 CALM      29.99S
$$

MSZ040-058-250200-
CENTRAL MISSISSIPPI

CITY           SKY/WX    TMP DP  RH WIND       PRES   REMARKS
JACKSON INTL   PTCLDY    80  70  71 CALM      29.99S
JACKSON HAWKNS CLEAR     81  70  69 NW3       29.99S
MADISON        FAIR      77  68  73 CALM      29.98S
MERIDIAN KEY   CLEAR     78  69  73 CALM      29.99S
MERIDIAN NAS   CLEAR     82  66  58 S3        29.99S
VICKSBURG VKS  CLEAR     77  73  88 CALM      29.97F
$$

MSZ059>079-250200-
SOUTH MISSISSIPPI

CITY           SKY/WX    TMP DP  RH WIND       PRES   REMARKS
BROOKHAVEN     FAIR     N/A N/A N/A CALM      30.02R
COLUMBIA       FAIR      77  75  94 CALM      30.02S
HATTIESBURG    CLEAR     83  73  72 CALM      29.99S
LAUREL         FAIR      80  69  68 CALM      29.98
MCCOMB         CLEAR     78  72  81 CALM      30.01S
NATCHEZ        CLEAR     79  73  83 CALM      29.99R
PINE BELT      CLEAR     79  72  78 CALM      30.01R
$$

MSZ080>082-250200-
COASTAL MISSISSIPPI

CITY           SKY/WX    TMP DP  RH WIND       PRES   REMARKS
BAY ST LOUIS   PTCLDY    75  72  88 CALM      29.99F
BILOXI         CLEAR     82  74  77 W1        29.98S
PASCAGOULA     CLEAR     75  75 100 CALM      29.99R
GULFPORT       CLEAR     82  73  74 W3        29.98S
$$

LAZ007>009-015>016-023>026-250200-
NORTHEAST LOUISIANA

CITY           SKY/WX    TMP DP  RH WIND       PRES   REMARKS
BASTROP        FAIR      74  73  95 CALM      29.97F
TALLULAH/VBURG CLEAR     77  70  79 CALM      29.97S
$$




USA.gov is the U.S. government's official web portal to all federal, state and local government web resources and services.